Regional Weather Roundup
Issued by NWS Albany, NY

Home | Current Version | Previous Version | Graphics & Text | Print | Product List | Glossary Off
Versions: 1 2 3 4 5 6 7 8 9 10 11 12 13 14 15 16 17 18 19 20 21 22 23 24 25 26 27

000
ASUS41 KALY 020810
RWRALY

NEW YORK STATE HOURLY WEATHER ROUNDUP
NATIONAL WEATHER SERVICE ALBANY NY
400 AM EDT MON MAY 02 2016

NOTE: "FAIR" INDICATES FEW OR NO CLOUDS BELOW 12,000 FEET WITH NO
SIGNIFICANT WEATHER AND/OR NO OBSTRUCTIONS TO VISIBILITY.

NYZ032-033-038>043-046>054-057>066-NYZ062>081-082-084-020900-
EAST


CITY           SKY/WX    TMP DP  RH WIND       PRES   REMARKS
ALBANY         CLOUDY    45  40  82 S7        30.02F
GLENS FALLS    CLOUDY    44  41  89 CALM      30.02F FOG
POUGHKEEPSIE   CLOUDY    45  41  86 CALM      30.03S
MONTGOMERY     CLOUDY    44  42  93 CALM      30.02S FOG
WHITE PLAINS   DRIZZLE   43  42  97 N3        30.02S FOG
ISLIP          CLOUDY    46  44  93 N7        30.02S FOG
NEW YORK CITY  CLOUDY    46  43  89 N6        30.03F FOG
CENTRAL PARK   CLOUDY    45  43  93 VRB5      30.05F FOG
$$

NYZ005>009-017-018-044>046-055-056-020900-
CENTRAL


CITY           SKY/WX    TMP DP  RH WIND       PRES   REMARKS
FULTON         FOG       48  46  93 NW3       29.96F VSB 1/4
SYRACUSE       DRIZZLE   48  48 100 W6        29.96S FOG
ROME           CLOUDY    44  44 100 E6        29.98S FOG
ELMIRA         CLOUDY    50  45  83 E3        29.94F
BINGHAMTON     CLOUDY    45  45 100 S5        29.95S FOG
MONTICELLO     CLOUDY    43  43 100 CALM      30.01S VSB 1/2
$$

NYZ026>034-041>043-087-020900-
NORTH


CITY           SKY/WX    TMP DP  RH WIND       PRES   REMARKS
WATERTOWN      CLOUDY    45  44  97 N7        29.97S
FORT DRUM      NOT AVBL
MASSENA        CLOUDY    45  43  93 SE3       29.99F
SARANAC LAKE   CLOUDY    40  38  93 CALM      29.94F
PLATTSBURGH    CLOUDY    43  41  93 SE9       30.00F
$$

NYZ001>004-010>016-019>021-085-020900-
WEST


CITY           SKY/WX    TMP DP  RH WIND       PRES   REMARKS
NIAGARA FALLS  CLOUDY    45  42  89 NE9       29.96S FOG
BUFFALO        MOCLDY    45  42  89 E7        29.95F
DUNKIRK        CLOUDY    45  44  97 NE8       29.93F
JAMESTOWN      CLOUDY    45  43  93 NE10      29.89F VSB 1/2
WELLSVILLE     FOG       49  48  97 E3        29.92F VSB 1/4
ROCHESTER      CLOUDY    45  44  97 NE5       29.96F FOG
PENN YAN       CLOUDY    46  45  96 CALM      29.96F FOG
$$

             KEY
       WCI = WIND CHILL INDEX
       VSB = VISIBILITY
       HX  = HEAT INDEX
$$




USA.gov is the U.S. government's official web portal to all federal, state and local government web resources and services.